Regional Weather Roundup
Issued by NWS Nashville, TN

Home | Current Version | Previous Version | Text Only | Print | Product List | Glossary On
Versions: 1 2 3 4 5 6 7 8 9 10 11 12 13 14 15 16 17 18 19 20 21 22 23 24 25 26 27 28 29 30 31 32 33 34 35 36 37 38 39 40 41 42 43 44 45 46 47 48 49 50
000
ASUS44 KOHX 302110
RWROHX
MIDDLE TENNESSEE HOURLY WEATHER ROUNDUP
NATIONAL WEATHER SERVICE NASHVILLE TN
300 PM CST FRI JAN 30 2015

NOTE: "FAIR" INDICATES FEW OR NO CLOUDS BELOW 12,000 FEET WITH
NO SIGNIFICANT WEATHER AND/OR OBSTRUCTIONS TO VISIBILITY.

* THESE REPORTS ARE NOT UNDER NWS QUALITY CONTROL AND MAY NOT
  REPORT WEATHER SUCH AS PRECIPITATION AND FOG.


TNZ005>011-023>034-057-059-062>066-078-080-302200
...NORTHERN MIDDLE TENNESSEE...

CITY           SKY/WX    TMP DP  RH WIND       PRES   REMARKS
CLARKSVILLE    SUNNY     42  21  43 CALM      30.43F
CROSSVILLE     SUNNY     38  18  44 NW13      30.34S WCI  30
GALLATIN         N/A     42  21  43 N8        30.42F
DICKSON        SUNNY     43  19  39 N8        30.41R
LEBANON        SUNNY     42  20  41 NW8       30.40S
LIVINGSTON     SUNNY     40  24  53 N8        30.37R WCI  34
NASHVILLE      MOSUNNY   45  19  35 N9        30.43R
WEST NASHVILLE   N/A     43  18  36 VRB6      30.43R
PORTLAND       SUNNY     39  19  45 N8        30.41R WCI  34
SMYRNA         SUNNY     44  20  38 N8        30.43S
SPARTA         SUNNY     41  23  48 VRB5      30.38S
$$
TNZ056-058-060-061-075>077-079-093>097-302200
...SOUTHERN MIDDLE TENNESSEE...

CITY           SKY/WX    TMP DP  RH WIND       PRES   REMARKS
COLUMBIA       SUNNY     45  21  39 N8        30.39S
LEWISBURG      SUNNY     44  20  38 N9        30.40S
MCMINNVILLE    SUNNY     43  21  42 N8        30.38S
MURFREESBORO   SUNNY     42  20  41 NE7       30.41S
SHELBYVILLE    SUNNY     45  23  42 N9        30.41S
TULLAHOMA      SUNNY     43  18  36 N8        30.38S
WINCHESTER     SUNNY     43  19  39 NE13      30.38R
$$


...KEY TO REMARKS...
VSB - VISIBILITY IN MILES
WCI - WIND CHILL INDEX
HX  - HEAT INDEX



USA.gov is the U.S. government's official web portal to all federal, state and local government web resources and services.